Time,TemperatureF,DewpointF,PressureIn,WindDirection,WindDirectionDegrees,WindSpeedMPH,WindSpeedGustMPH,Humidity,HourlyPrecipIn,Conditions,Clouds,dailyrainin,SoftwareType,DateUTC
2013-07-24 00:01:00,62.0,56.0,29.77,SW,234,11.0,-999.0,81,-99.99,,,-99.99,,2013-07-24 04:01:00,
2013-07-24 00:11:00,62.0,56.0,29.76,SW,234,9.0,-999.0,80,-99.99,,,-99.99,,2013-07-24 04:11:00,
2013-07-24 00:32:00,62.0,55.0,29.75,SW,229,11.0,-999.0,79,-99.99,,,-99.99,,2013-07-24 04:32:00,
2013-07-24 00:43:00,62.0,56.0,29.75,WSW,252,12.0,-999.0,81,-99.99,,,-99.99,,2013-07-24 04:43:00,
2013-07-24 00:52:00,62.0,56.0,29.75,WSW,252,12.0,-999.0,81,-99.99,,,-99.99,,2013-07-24 04:52:00,
2013-07-24 01:02:00,62.0,57.0,29.76,WSW,250,10.0,-999.0,83,-99.99,,,-99.99,,2013-07-24 05:02:00,
2013-07-24 01:33:00,61.0,56.0,29.75,WNW,287,11.0,-999.0,85,-99.99,,,-99.99,,2013-07-24 05:33:00,
2013-07-24 01:43:00,61.0,57.0,29.74,WSW,257,9.0,-999.0,86,-99.99,,,-99.99,,2013-07-24 05:43:00,
2013-07-24 01:52:00,61.0,57.0,29.74,WSW,257,9.0,-999.0,86,-99.99,,,-99.99,,2013-07-24 05:52:00,
2013-07-24 02:01:00,61.0,56.0,29.74,WSW,254,10.0,-999.0,85,-99.99,,,-99.99,,2013-07-24 06:01:00,
2013-07-24 02:12:00,60.0,54.0,29.74,WNW,297,10.0,-999.0,81,-99.99,,,-99.99,,2013-07-24 06:12:00,
2013-07-24 02:34:00,60.0,54.0,29.73,WSW,246,10.0,-999.0,80,-99.99,,,-99.99,,2013-07-24 06:34:00,
2013-07-24 02:43:00,60.0,53.0,29.72,WNW,282,8.0,-999.0,79,-99.99,,,-99.99,,2013-07-24 06:43:00,
2013-07-24 02:53:00,60.0,53.0,29.72,WNW,282,8.0,-999.0,79,-99.99,,,-99.99,,2013-07-24 06:53:00,
2013-07-24 03:02:00,60.0,53.0,29.72,West,259,11.0,-999.0,79,-99.99,,,-99.99,,2013-07-24 07:02:00,
2013-07-24 03:12:00,60.0,54.0,29.71,WSW,237,10.0,-999.0,80,-99.99,,,-99.99,,2013-07-24 07:12:00,
2013-07-24 03:32:00,60.0,53.0,29.70,West,274,8.0,-999.0,79,-99.99,,,-99.99,,2013-07-24 07:32:00,
2013-07-24 03:43:00,60.0,53.0,29.70,West,265,8.0,-999.0,77,-99.99,,,-99.99,,2013-07-24 07:43:00,
2013-07-24 03:53:00,60.0,52.0,29.70,SW,232,9.0,-999.0,76,-99.99,,,-99.99,,2013-07-24 07:53:00,
2013-07-24 04:02:00,60.0,52.0,29.70,SW,232,9.0,-999.0,76,-99.99,,,-99.99,,2013-07-24 08:02:00,
2013-07-24 04:12:00,60.0,52.0,29.71,SW,221,8.0,-999.0,75,-99.99,,,-99.99,,2013-07-24 08:12:00,
2013-07-24 04:32:00,60.0,52.0,29.70,SW,223,8.0,-999.0,74,-99.99,,,-99.99,,2013-07-24 08:32:00,
2013-07-24 04:43:00,60.0,52.0,29.70,SW,225,8.0,-999.0,74,-99.99,,,-99.99,,2013-07-24 08:43:00,
2013-07-24 04:52:00,60.0,52.0,29.70,SW,225,8.0,-999.0,74,-99.99,,,-99.99,,2013-07-24 08:52:00,
2013-07-24 05:02:00,60.0,52.0,29.70,SW,231,8.0,-999.0,74,-99.99,,,-99.99,,2013-07-24 09:02:00,
2013-07-24 05:12:00,60.0,51.0,29.70,SW,224,8.0,-999.0,73,-99.99,,,-99.99,,2013-07-24 09:12:00,
2013-07-24 05:22:00,60.0,51.0,29.70,WSW,252,9.0,-999.0,73,-99.99,,,-99.99,,2013-07-24 09:22:00,
2013-07-24 05:32:00,60.0,51.0,29.70,WSW,252,9.0,-999.0,73,-99.99,,,-99.99,,2013-07-24 09:32:00,
2013-07-24 05:43:00,60.0,51.0,29.70,West,264,7.0,-999.0,73,-99.99,,,-99.99,,2013-07-24 09:43:00,
2013-07-24 05:53:00,60.0,51.0,29.70,West,264,7.0,-999.0,73,-99.99,,,-99.99,,2013-07-24 09:53:00,
2013-07-24 06:02:00,60.0,51.0,29.70,WSW,243,8.0,-999.0,73,-99.99,,,-99.99,,2013-07-24 10:02:00,
2013-07-24 06:12:00,60.0,51.0,29.71,SW,215,8.0,-999.0,73,-99.99,,,-99.99,,2013-07-24 10:12:00,
2013-07-24 06:22:00,60.0,51.0,29.71,SW,215,8.0,-999.0,73,-99.99,,,-99.99,,2013-07-24 10:22:00,
2013-07-24 06:33:00,59.0,51.0,29.70,WSW,241,7.0,-999.0,74,-99.99,,,-99.99,,2013-07-24 10:33:00,
2013-07-24 06:43:00,59.0,50.0,29.71,SW,232,10.0,-999.0,73,-99.99,,,-99.99,,2013-07-24 10:43:00,
2013-07-24 06:53:00,59.0,50.0,29.70,WSW,248,7.0,-999.0,73,-99.99,,,-99.99,,2013-07-24 10:53:00,
2013-07-24 07:02:00,59.0,50.0,29.70,WSW,248,7.0,-999.0,73,-99.99,,,-99.99,,2013-07-24 11:02:00,
2013-07-24 07:12:00,59.0,50.0,29.71,West,276,10.0,-999.0,73,-99.99,,,-99.99,,2013-07-24 11:12:00,
2013-07-24 07:22:00,59.0,50.0,29.71,West,276,10.0,-999.0,73,-99.99,,,-99.99,,2013-07-24 11:22:00,
2013-07-24 07:32:00,59.0,50.0,29.72,WSW,240,10.0,-999.0,73,-99.99,,,-99.99,,2013-07-24 11:32:00,
2013-07-24 07:44:00,59.0,50.0,29.72,West,259,10.0,-999.0,73,-99.99,,,-99.99,,2013-07-24 11:44:00,
2013-07-24 07:52:00,59.0,50.0,29.72,West,259,10.0,-999.0,73,-99.99,,,-99.99,,2013-07-24 11:52:00,
2013-07-24 08:02:00,59.0,50.0,29.72,WNW,286,10.0,-999.0,72,-99.99,,,-99.99,,2013-07-24 12:02:00,
2013-07-24 08:12:00,59.0,50.0,29.72,West,261,8.0,-999.0,72,-99.99,,,-99.99,,2013-07-24 12:12:00,
2013-07-24 08:32:00,59.0,50.0,29.73,West,267,7.0,-999.0,72,-99.99,,,-99.99,,2013-07-24 12:32:00,
2013-07-24 08:42:00,59.0,50.0,29.74,SW,235,9.0,-999.0,72,-99.99,,,-99.99,,2013-07-24 12:42:00,
2013-07-24 08:52:00,59.0,50.0,29.74,SW,235,9.0,-999.0,72,-99.99,,,-99.99,,2013-07-24 12:52:00,
2013-07-24 09:32:00,59.0,50.0,29.75,West,277,8.0,-999.0,73,-99.99,,,-99.99,,2013-07-24 13:32:00,
2013-07-24 09:43:00,59.0,50.0,29.76,WSW,238,10.0,-999.0,73,-99.99,,,-99.99,,2013-07-24 13:43:00,
2013-07-24 09:53:00,60.0,51.0,29.76,West,266,7.0,-999.0,73,-99.99,,,-99.99,,2013-07-24 13:53:00,
2013-07-24 10:02:00,60.0,51.0,29.76,West,266,7.0,-999.0,73,-99.99,,,-99.99,,2013-07-24 14:02:00,
2013-07-24 10:12:00,59.0,50.0,29.76,WSW,248,8.0,-999.0,73,-99.99,,,-99.99,,2013-07-24 14:12:00,
2013-07-24 10:22:00,59.0,51.0,29.76,WNW,299,6.0,-999.0,74,-99.99,,,-99.99,,2013-07-24 14:22:00,
2013-07-24 10:32:00,59.0,51.0,29.76,WNW,299,6.0,-999.0,74,-99.99,,,-99.99,,2013-07-24 14:32:00,
2013-07-24 10:43:00,60.0,52.0,29.77,WSW,240,5.0,-999.0,74,-99.99,,,-99.99,,2013-07-24 14:43:00,
2013-07-24 10:55:00,60.0,52.0,29.77,WSW,240,5.0,-999.0,74,-99.99,,,-99.99,,2013-07-24 14:55:00,
2013-07-24 11:02:00,60.0,56.0,29.77,West,280,6.0,-999.0,87,-99.99,,,-99.99,,2013-07-24 15:02:00,
2013-07-24 11:33:00,63.0,60.0,29.78,NNW,339,6.0,-999.0,90,-99.99,,,-99.99,,2013-07-24 15:33:00,
2013-07-24 11:43:00,64.0,60.0,29.78,WSW,244,7.0,-999.0,87,-99.99,,,-99.99,,2013-07-24 15:43:00,
2013-07-24 12:02:00,63.0,58.0,29.78,West,259,3.0,-999.0,85,-99.99,,,-99.99,,2013-07-24 16:02:00,
2013-07-24 12:22:00,65.0,59.0,29.78,WNW,301,4.0,-999.0,82,-99.99,,,-99.99,,2013-07-24 16:22:00,
2013-07-24 12:33:00,64.0,58.0,29.78,WSW,243,7.0,-999.0,81,-99.99,,,-99.99,,2013-07-24 16:33:00,
2013-07-24 12:43:00,65.0,59.0,29.78,WNW,299,6.0,-999.0,82,-99.99,,,-99.99,,2013-07-24 16:43:00,
2013-07-24 12:53:00,65.0,59.0,29.78,WNW,299,6.0,-999.0,82,-99.99,,,-99.99,,2013-07-24 16:53:00,
2013-07-24 13:03:00,66.0,59.0,29.78,WSW,240,6.0,-999.0,77,-99.99,,,-99.99,,2013-07-24 17:03:00,
2013-07-24 13:12:00,65.0,59.0,29.78,WNW,295,5.0,-999.0,81,-99.99,,,-99.99,,2013-07-24 17:12:00,
2013-07-24 13:22:00,65.0,59.0,29.78,WNW,295,5.0,-999.0,81,-99.99,,,-99.99,,2013-07-24 17:22:00,
2013-07-24 13:33:00,67.0,58.0,29.78,West,261,6.0,-999.0,74,-99.99,,,-99.99,,2013-07-24 17:33:00,
2013-07-24 13:53:00,66.0,59.0,29.78,WNW,300,6.0,-999.0,77,-99.99,,,-99.99,,2013-07-24 17:53:00,
2013-07-24 14:03:00,66.0,58.0,29.78,West,269,4.0,-999.0,76,-99.99,,,-99.99,,2013-07-24 18:03:00,
2013-07-24 14:22:00,67.0,58.0,29.78,WSW,246,5.0,-999.0,74,-99.99,,,-99.99,,2013-07-24 18:22:00,
2013-07-24 14:33:00,70.0,60.0,29.78,WSW,253,5.0,-999.0,70,-99.99,,,-99.99,,2013-07-24 18:33:00,
2013-07-24 14:43:00,68.0,57.0,29.78,WNW,296,5.0,-999.0,68,-99.99,,,-99.99,,2013-07-24 18:43:00,
2013-07-24 14:52:00,68.0,57.0,29.78,WNW,296,5.0,-999.0,68,-99.99,,,-99.99,,2013-07-24 18:52:00,
2013-07-24 15:03:00,67.0,58.0,29.78,WSW,257,6.0,-999.0,72,-99.99,,,-99.99,,2013-07-24 19:03:00,
2013-07-24 15:12:00,67.0,58.0,29.78,WSW,257,6.0,-999.0,72,-99.99,,,-99.99,,2013-07-24 19:12:00,
2013-07-24 15:22:00,68.0,58.0,29.78,WNW,284,8.0,-999.0,71,-99.99,,,-99.99,,2013-07-24 19:22:00,
2013-07-24 15:33:00,68.0,58.0,29.78,West,265,6.0,-999.0,70,-99.99,,,-99.99,,2013-07-24 19:33:00,
2013-07-24 15:43:00,68.0,59.0,29.78,NW,321,7.0,-999.0,73,-99.99,,,-99.99,,2013-07-24 19:43:00,
2013-07-24 15:53:00,68.0,59.0,29.78,NW,321,7.0,-999.0,73,-99.99,,,-99.99,,2013-07-24 19:53:00,
2013-07-24 16:02:00,67.0,58.0,29.78,WNW,288,7.0,-999.0,73,-99.99,,,-99.99,,2013-07-24 20:02:00,
2013-07-24 16:13:00,67.0,58.0,29.79,West,259,7.0,-999.0,73,-99.99,,,-99.99,,2013-07-24 20:13:00,
2013-07-24 16:23:00,67.0,58.0,29.79,West,259,7.0,-999.0,73,-99.99,,,-99.99,,2013-07-24 20:23:00,
2013-07-24 16:33:00,66.0,57.0,29.79,West,267,9.0,-999.0,73,-99.99,,,-99.99,,2013-07-24 20:33:00,
2013-07-24 16:43:00,66.0,58.0,29.78,WSW,248,10.0,-999.0,75,-99.99,,,-99.99,,2013-07-24 20:43:00,
2013-07-24 16:53:00,66.0,58.0,29.78,WSW,248,10.0,-999.0,75,-99.99,,,-99.99,,2013-07-24 20:53:00,
2013-07-24 17:03:00,65.0,58.0,29.78,WSW,250,7.0,-999.0,78,-99.99,,,-99.99,,2013-07-24 21:03:00,
2013-07-24 17:12:00,65.0,59.0,29.78,WNW,300,6.0,-999.0,81,-99.99,,,-99.99,,2013-07-24 21:12:00,
2013-07-24 17:22:00,65.0,59.0,29.78,WNW,300,6.0,-999.0,81,-99.99,,,-99.99,,2013-07-24 21:22:00,
2013-07-24 17:32:00,64.0,58.0,29.78,North,355,7.0,-999.0,82,-99.99,,,-99.99,,2013-07-24 21:32:00,
2013-07-24 17:52:00,65.0,58.0,29.78,WNW,285,8.0,-999.0,79,-99.99,,,-99.99,,2013-07-24 21:52:00,
2013-07-24 18:02:00,64.0,57.0,29.78,West,259,8.0,-999.0,79,-99.99,,,-99.99,,2013-07-24 22:02:00,
2013-07-24 18:12:00,64.0,57.0,29.78,West,259,8.0,-999.0,79,-99.99,,,-99.99,,2013-07-24 22:12:00,
2013-07-24 18:22:00,63.0,57.0,29.78,WNW,287,7.0,-999.0,82,-99.99,,,-99.99,,2013-07-24 22:22:00,
2013-07-24 18:43:00,62.0,58.0,29.78,NW,311,7.0,-999.0,86,-99.99,,,-99.99,,2013-07-24 22:43:00,
2013-07-24 18:53:00,62.0,58.0,29.78,NW,311,7.0,-999.0,86,-99.99,,,-99.99,,2013-07-24 22:53:00,
2013-07-24 19:02:00,62.0,58.0,29.78,West,265,7.0,-999.0,86,-99.99,,,-99.99,,2013-07-24 23:02:00,
2013-07-24 19:22:00,61.0,57.0,29.79,West,279,8.0,-999.0,87,-99.99,,,-99.99,,2013-07-24 23:22:00,
2013-07-24 19:52:00,59.0,56.0,29.79,WNW,298,6.0,-999.0,90,-99.99,,,-99.99,,2013-07-24 23:52:00,
2013-07-24 20:02:00,59.0,56.0,29.79,NW,312,4.0,-999.0,90,-99.99,,,-99.99,,2013-07-25 00:02:00,
2013-07-24 20:12:00,57.0,55.0,29.80,WSW,258,6.0,-999.0,93,-99.99,,,-99.99,,2013-07-25 00:12:00,
2013-07-24 20:22:00,57.0,55.0,29.80,WSW,258,6.0,-999.0,93,-99.99,,,-99.99,,2013-07-25 00:22:00,
2013-07-24 20:33:00,56.0,54.0,29.80,NW,311,6.0,-999.0,93,-99.99,,,-99.99,,2013-07-25 00:33:00,
2013-07-24 20:43:00,55.0,53.0,29.81,NNE,26,4.0,-999.0,93,-99.99,,,-99.99,,2013-07-25 00:43:00,
2013-07-24 20:53:00,55.0,53.0,29.81,NNE,26,4.0,-999.0,93,-99.99,,,-99.99,,2013-07-25 00:53:00,
2013-07-24 21:03:00,55.0,53.0,29.81,WNW,289,5.0,-999.0,93,-99.99,,,-99.99,,2013-07-25 01:03:00,
2013-07-24 21:22:00,54.0,52.0,29.82,West,268,3.0,-999.0,93,-99.99,,,-99.99,,2013-07-25 01:22:00,
2013-07-24 21:32:00,54.0,52.0,29.83,West,267,2.0,-999.0,93,-99.99,,,-99.99,,2013-07-25 01:32:00,
2013-07-24 21:53:00,54.0,52.0,29.83,NW,311,2.0,-999.0,93,-99.99,,,-99.99,,2013-07-25 01:53:00,
2013-07-24 22:12:00,54.0,52.0,29.83,NW,311,1.0,-999.0,93,-99.99,,,-99.99,,2013-07-25 02:12:00,
2013-07-24 22:22:00,53.0,51.0,29.84,NNE,31,1.0,-999.0,93,-99.99,,,-99.99,,2013-07-25 02:22:00,
2013-07-24 22:43:00,53.0,51.0,29.85,NE,40,0.0,-999.0,93,-99.99,,,-99.99,,2013-07-25 02:43:00,
2013-07-24 22:53:00,53.0,51.0,29.85,NNE,21,2.0,-999.0,92,-99.99,,,-99.99,,2013-07-25 02:53:00,
2013-07-24 23:02:00,53.0,51.0,29.85,NW,318,1.0,-999.0,92,-99.99,,,-99.99,,2013-07-25 03:02:00,
2013-07-24 23:16:00,53.0,51.0,29.85,NW,318,1.0,-999.0,92,-99.99,,,-99.99,,2013-07-25 03:16:00,
2013-07-24 23:24:00,53.0,51.0,29.86,NNW,344,0.0,-999.0,93,-99.99,,,-99.99,,2013-07-25 03:24:00,
2013-07-24 23:39:00,53.0,51.0,29.86,ENE,76,3.0,-999.0,92,-99.99,,,-99.99,,2013-07-25 03:39:00,
2013-07-24 23:52:00,52.0,49.0,29.86,ENE,76,1.0,-999.0,91,-99.99,,,-99.99,,2013-07-25 03:52:00,